This is the latest recevied weather packets stored in our database for station/object KF4ERV-4. If no packets are shown the sender has not sent any weather packets the latest 1 day(s).
| Time | Temp. | Humidity | Pressure | Rain* | Wind** | Luminosity | Snow |
|---|---|---|---|---|---|---|---|
| 1778077797 | 10° C | 52% | 1014 hPa | 0 mm | - | - | - |
| 1778076896 | 9.44° C | 60% | 1014 hPa | 0 mm | - | - | - |
| 1778075154 | 8.33° C | 21% | 1014 hPa | 0 mm | - | - | - |
| 1778074284 | 7.78° C | 32% | 1013 hPa | 0 mm | - | - | - |
| 1778073595 | 7.78° C | 33% | 1013.9 hPa | 0 mm | - | - | - |
| 1778072694 | 7.78° C | 40% | 1013 hPa | 0 mm | - | - | - |
| 1778072547 | 7.78° C | 42% | 1013 hPa | 0 mm | - | - | - |
| 1778072254 | 7.78° C | 43% | 1013 hPa | 0 mm | - | - | - |
| 1778071964 | 7.78° C | 50% | 1013 hPa | 0 mm | - | - | - |
| 1778071840 | 7.78° C | 52% | 1013 hPa | 0 mm | - | - | - |
| 1778071791 | 7.78° C | 50% | 1013 hPa | 0 mm | - | - | - |
| 1778071674 | 7.78° C | 51% | 1013 hPa | 0 mm | - | - | - |
| 1778071562 | 7.78° C | 52% | 1013 hPa | 0 mm | - | - | - |
| 1778071494 | 7.78° C | 51% | 1013 hPa | 0 mm | - | - | - |
| 1778071349 | 7.78° C | 53% | 1013 hPa | 0 mm | - | - | - |
| 1778071197 | 7.78° C | 52% | 1013 hPa | 0 mm | - | - | - |
| 1778070908 | 7.78° C | 52% | 1013 hPa | 0 mm | - | - | - |
| 1778070900 | 7.78° C | 53% | 1013 hPa | 0 mm | - | - | - |
| 1778069701 | 7.78° C | 56% | 1013 hPa | 0 mm | - | - | - |
| 1778069646 | 7.78° C | 57% | 1013 hPa | 0 mm | - | - | - |
| 1778069393 | 7.78° C | 57% | 1013 hPa | 0 mm | - | - | - |
| 1778068800 | 7.78° C | 60% | 1013 hPa | 0 mm | - | - | - |
| 1778068774 | 7.78° C | 61% | 1013 hPa | 0 mm | - | - | - |
| 1778067291 | 7.78° C | 66% | 1012.8 hPa | 0 mm | - | - | - |
| 1778066996 | 7.78° C | 66% | 1012 hPa | 0 mm | - | - | - |
* Rain latest hour (hover to see other rain measurements)
** Current wind speed in m/s (hover to see current wind gust speed)